User: anonymous   Login
Location: Unspecified
(0.0000°N, 0.0000°E)
Time: 19:02:06
(UTC+00:00)
Language:

PAYLOAD H - Orbit

View from above orbital plane
View from above orbital plane
View from above satellite
View from above satellite

Ground track
Ground track

The orbit data is extracted from the following two-line orbital elements,

1 27847U 03031H   17082.97820541 +.00000051 +00000-0 +42736-4 0  9991
2 27847 098.6852 092.0268 0008813 201.5949 158.4858 14.22042419712306
Epoch (UTC): 23 March 2017 23:28:36
Eccentricity: 0.0008813
inclination: 98.6852°
perigee height: 812 km
apogee height: 825 km
right ascension of ascending node: 92.0268°
argument of perigee: 201.5949°
revolutions per day: 14.22042419
mean anomaly at epoch: 158.4858°
orbit number at epoch: 71230

The dashed part of the orbit path shows where the satellite is in the earth's shadow,  

DLR